[[{"header":{"parameterUnit":"m.s-1","parameterCategory":1,"la1":30.2991,"la2":30.254,"lo1":-89.0895,"lo2":-89.0444,"dy":0.0017,"dx":0.0017,"nx":28,"ny":28,"refTime":"2025-07-17T09:00:00:Z","depth":0,"parameterNumber":2,"parameterNumberName":"U-component_of_WINDS"},"data":[0,0,0,0,0,0,0,0,0,0,0,0,0,0,0,0,0,0,0,0,0,0,0,0,0,0,0,0,0,0,0,0,0,0,0,0,0,0,0,0,0,0,0,0,0,0,0,0,0,0,0,0,0,0,0,0,0,0,-5.1866,-5.1867,0,-5.2039,-5.2041,-5.2043,-5.2094,-5.2093,-5.2092,-5.2091,-5.2266,-5.2271,-5.2277,0,0,0,0,0,0,0,0,0,0,0,0,0,-5.1573,-5.1578,-5.1865,-5.1868,-5.187,-5.2038,-5.2041,-5.2043,-5.2094,-5.2093,-5.2092,-5.2091,-5.2264,-5.2271,-5.2277,0,0,0,0,0,0,0,0,0,0,0,0,0,-5.1718,-5.158,-5.1865,-5.1916,-5.1922,-5.2038,-5.2041,-5.2044,-5.2094,-5.2093,-5.2092,-5.2091,-5.2262,-5.227,-5.2278,-5.2355,0,0,-5.2303,-5.2307,0,0,0,0,0,0,0,0,-5.171,-5.1729,-5.1906,-5.1912,-5.192,-5.2044,-5.2002,-5.2148,-5.2095,-5.2029,-5.2091,-5.209,-5.2193,-5.2207,-5.2242,-5.2364,-5.2371,-5.2304,-5.2309,-5.2312,-5.2315,0,0,0,0,0,0,0,-5.17,-5.1722,-5.1934,-5.1908,-5.1917,-5.1928,-5.1947,-5.203,-5.2116,-5.2034,-5.2039,-5.2059,-5.2196,-5.2234,-5.2246,-5.2374,-5.2304,-5.2311,-5.2316,-5.2319,-5.2563,-5.2565,0,0,0,0,0,0,-5.1682,-5.1713,-5.1928,-5.1939,-5.181,-5.1934,-5.1956,-5.2005,-5.2115,-5.2131,-5.206,-5.206,-5.2221,-5.2237,-5.2253,-5.2348,-5.2312,-5.232,-5.2325,-5.2562,-5.2563,-5.2565,0,0,0,0,0,0,-5.1675,-5.1701,-5.1921,-5.1827,-5.1856,-5.1941,-5.1996,-5.2009,-5.2047,-5.2134,-5.215,-5.2083,-5.222,-5.2241,-5.2329,-5.2355,-5.2324,-5.2331,-5.256,-5.2562,-5.2564,-5.254,0,0,0,0,0,0,-5.1667,-5.1698,-5.173,-5.1828,-5.1861,-5.1996,-5.1997,-5.2013,-5.2061,-5.2064,-5.216,-5.2175,-5.2221,-5.2316,-5.2337,-5.2365,-5.2338,-5.2558,-5.2561,-5.2564,-5.2539,-5.2541,-5.2543,0,0,0,0,0,-5.1656,-5.1716,-5.1731,-5.1757,-5.1903,-5.1998,-5.2017,-5.2069,-5.2063,-5.2095,-5.215,-5.2171,-5.2349,-5.2325,-5.2349,-5.238,-5.2556,-5.256,-5.2563,-5.2538,-5.2541,-5.2543,0,0,0,0,0,0,-5.1619,-5.173,-5.1748,-5.1842,-5.191,-5.2006,-5.2048,-5.2071,-5.2142,-5.2141,-5.2203,-5.2224,-5.2306,-5.2352,-5.2324,-5.2458,-5.2453,-5.2461,-5.2425,-5.2429,-5.2431,-5.2417,-5.2344,0,0,0,0,0,-5.1622,-5.1691,-5.1784,-5.1857,-5.1891,-5.1963,-5.2006,-5.2041,-5.2113,-5.2142,-5.2204,-5.2273,-5.2344,-5.2389,-5.2459,-5.2546,-5.2566,-5.2579,-5.2581,-5.2582,-5.2588,-5.2634,-5.264,-5.2577,-5.2577,-5.2577,0,0,-5.1628,-5.1697,-5.1737,-5.1851,-5.1908,-5.1976,-5.1987,-5.2059,-5.2109,-5.2153,-5.2239,-5.2287,-5.2367,-5.2453,-5.2494,-5.2494,-5.261,-5.2587,-5.2587,-5.2593,-5.2638,-5.2644,-5.2649,-5.2579,-5.2579,-5.2578,0,0,-5.1674,-5.1734,-5.1801,-5.1857,-5.1943,-5.199,-5.2005,-5.2098,-5.2131,-5.2219,-5.2252,-5.2311,-5.2433,-5.2488,-5.2532,-5.2594,-5.2615,-5.2615,-5.2626,-5.267,-5.2675,-5.268,-5.2699,-5.2706,-5.2621,-5.2621,-5.2621,0,-5.167,-5.1775,-5.1831,-5.1901,-5.1949,-5.1992,-5.2057,-5.2109,-5.2213,-5.2244,-5.2242,-5.2394,-5.2451,-5.2549,-5.2564,-5.2599,-5.2616,-5.2604,-5.267,-5.2675,-5.268,-5.27,-5.2707,-5.2621,-5.2621,-5.2621,-5.2621,0,-5.1765,-5.1837,-5.188,-5.1979,-5.2032,-5.2099,-5.2163,-5.221,-5.2239,-5.2285,-5.2372,-5.2442,-5.2525,-5.2552,-5.2581,-5.2653,-5.265,-5.2658,-5.2654,-5.2685,-5.2704,-5.2712,-5.262,-5.262,-5.262,-5.262,0,0,-5.1792,-5.192,-5.1935,-5.1978,-5.2075,-5.2131,-5.2199,-5.2281,-5.2318,-5.2388,-5.2444,-5.2545,-5.2552,-5.2602,-5.2638,-5.2676,-5.2717,-5.268,-5.2683,-5.2682,-5.2797,-5.2789,-5.2797,-5.2732,-5.2734,-5.2736,-5.279,0,-5.1848,-5.1972,-5.2023,-5.2123,-5.2188,-5.2228,-5.2287,-5.2351,-5.2396,-5.2456,-5.2506,-5.2575,-5.2581,-5.2611,-5.2651,-5.2704,-5.2741,-5.2701,-5.2783,-5.2786,-5.276,-5.2807,-5.2799,-5.2847,-5.2798,-5.2799,-5.28,0,-5.193,-5.1999,-5.2105,-5.2191,-5.222,-5.2272,-5.235,-5.2408,-5.248,-5.251,-5.2564,-5.2597,-5.2667,-5.2659,-5.2755,-5.2726,-5.2763,-5.2793,-5.2796,-5.2805,-5.2794,-5.2814,-5.2864,-5.287,-5.2813,-5.2812,-5.2811,0,-5.1935,-5.2056,-5.2134,-5.217,-5.2273,-5.2308,-5.2352,-5.2424,-5.2469,-5.2536,-5.2565,-5.264,-5.268,-5.2736,-5.2787,-5.2777,-5.2877,-5.2874,-5.2902,-5.29,-5.292,-5.2918,-5.2974,-5.2947,-5.2947,-5.2946,-5.2946,0,-5.1991,-5.2053,-5.2137,-5.2185,-5.2255,-5.2312,-5.2379,-5.2426,-5.2489,-5.2545,-5.2584,-5.2635,-5.2701,-5.276,-5.2801,-5.2872,-5.2891,-5.2915,-5.2925,-5.2911,-5.2907,-5.2934,-5.2932,-5.2948,-5.2948,-5.2948,-5.2947,0,-5.2008,-5.2067,-5.2155,-5.2244,-5.2268,-5.2315,-5.2391,-5.2438,-5.2484,-5.2554,-5.2574,-5.2645,-5.2717,-5.2774,-5.2867,-5.2894,-5.2968,-5.298,-5.2944,-5.2949,-5.2973,-5.2969,-5.3047,-5.3059,-5.3024,-5.3025,-5.3025,0,-5.2039,-5.2087,-5.2182,-5.2222,-5.2266,-5.2331,-5.2377,-5.2434,-5.248,-5.2565,-5.26,-5.2675,-5.2737,-5.2848,-5.2908,-5.2978,-5.2991,-5.3014,-5.3002,-5.2985,-5.2989,-5.2985,-5.2988,-5.3014,-5.3014,-5.3014,-5.3014,0,-5.2085,-5.2111,-5.2177,-5.2251,-5.2305,-5.2366,-5.2429,-5.2459,-5.2527,-5.2576,-5.265,-5.2698,-5.2793,-5.2865,-5.2941,-5.2985,-5.301,-5.3018,-5.3027,-5.3013,-5.2989,-5.3,-5.2945,-5.3015,-5.3015,-5.3015,-5.3015,-5.3015,-5.2109,-5.2153,-5.2225,-5.2296,-5.2348,-5.2405,-5.2453,-5.2504,-5.2567,-5.2648,-5.2678,-5.2753,-5.2821,-5.2927,-5.2971,-5.3029,-5.3031,-5.3046,-5.3049,-5.3051,-5.3048,-5.298,-5.3043,-5.3043,-5.3043,-5.3043,-5.3043,0,-5.2155,-5.2203,-5.2268,-5.2353,-5.2408,-5.2428,-5.2497,-5.2541,-5.2606,-5.2669,-5.2729,-5.2811,-5.2881,-5.2945,-5.3018,-5.3051,-5.3065,-5.3068,-5.3065,-5.3075,-5.3044,-5.3027,-5.3056,-5.3056,-5.3056,-5.3056,-5.3056,-5.3056,-5.2185,-5.226,-5.2295,-5.2395,-5.2443,-5.2517,-5.2554,-5.2605,-5.2655,-5.2746,-5.2804,-5.2846,-5.2909,-5.2985,-5.3049,-5.3066,-5.309,-5.309,-5.311,-5.3079,-5.3077,-5.3075,-5.306,-5.3095,-5.3095,-5.3136,-5.3136,-5.3137]},{"header":{"parameterUnit":"m.s-1","parameterCategory":1,"la1":30.2991,"la2":30.254,"lo1":-89.0895,"lo2":-89.0444,"dy":0.0017,"dx":0.0017,"nx":28,"ny":28,"refTime":"2025-07-17T09:00:00:Z","depth":0,"parameterNumber":3,"parameterNumberName":"V-component_of_WINDS"},"data":[0,0,0,0,0,0,0,0,0,0,0,0,0,0,0,0,0,0,0,0,0,0,0,0,0,0,0,0,0,0,0,0,0,0,0,0,0,0,0,0,0,0,0,0,0,0,0,0,0,0,0,0,0,0,0,0,0,0,3.6531,3.6535,0,3.6882,3.6886,3.689,3.6997,3.6995,3.6994,3.6992,3.7348,3.7359,3.737,0,0,0,0,0,0,0,0,0,0,0,0,0,3.5951,3.5962,3.6531,3.6535,3.654,3.6881,3.6886,3.6891,3.6997,3.6995,3.6993,3.6991,3.7344,3.7357,3.7371,0,0,0,0,0,0,0,0,0,0,0,0,0,3.6242,3.5965,3.653,3.6634,3.6647,3.688,3.6886,3.6892,3.6998,3.6995,3.6993,3.699,3.734,3.7356,3.7372,3.7527,0,0,3.7423,3.743,0,0,0,0,0,0,0,0,3.6226,3.6264,3.6615,3.6627,3.6642,3.6893,3.6812,3.7105,3.6998,3.6864,3.6992,3.6989,3.7198,3.7227,3.7298,3.7543,3.7559,3.7425,3.7435,3.7442,3.7447,0,0,0,0,0,0,0,3.6206,3.6249,3.667,3.6619,3.6636,3.6663,3.6701,3.6868,3.7042,3.6876,3.6885,3.6925,3.7205,3.7282,3.7307,3.7564,3.7424,3.7439,3.7449,3.7456,3.7954,3.7958,0,0,0,0,0,0,3.6168,3.6232,3.6659,3.668,3.6424,3.6675,3.6718,3.6815,3.704,3.7072,3.6927,3.6928,3.7254,3.7287,3.732,3.7516,3.7442,3.7457,3.7467,3.7951,3.7955,3.7959,0,0,0,0,0,0,3.6155,3.6205,3.6645,3.6459,3.6517,3.6688,3.6796,3.6823,3.69,3.7078,3.711,3.6973,3.7254,3.7297,3.7475,3.753,3.7465,3.748,3.7947,3.7952,3.7957,3.7908,0,0,0,0,0,0,3.6138,3.62,3.6261,3.6459,3.6526,3.6794,3.6799,3.6832,3.6928,3.6934,3.713,3.716,3.7255,3.745,3.7491,3.7551,3.7493,3.7943,3.795,3.7955,3.7906,3.7911,3.7915,0,0,0,0,0,3.6117,3.6232,3.6263,3.6314,3.6606,3.6797,3.6835,3.6943,3.6932,3.6995,3.711,3.7154,3.7517,3.7467,3.7515,3.7581,3.794,3.7948,3.7955,3.7903,3.791,3.7915,0,0,0,0,0,0,3.6034,3.626,3.6297,3.648,3.6619,3.6815,3.6896,3.6946,3.709,3.7089,3.7217,3.726,3.7429,3.7523,3.7463,3.7742,3.773,3.7747,3.7674,3.7682,3.7687,3.766,3.7507,0,0,0,0,0,3.6037,3.6175,3.6364,3.6507,3.6575,3.6723,3.6811,3.6882,3.7031,3.709,3.7218,3.7359,3.7506,3.7599,3.7744,3.792,3.7964,3.7989,3.7994,3.7997,3.801,3.8111,3.8124,3.7983,3.7983,3.7983,0,0,3.6045,3.6185,3.6264,3.6494,3.661,3.6749,3.6772,3.6918,3.7022,3.7112,3.7288,3.7387,3.7553,3.7731,3.7816,3.7815,3.8059,3.8006,3.8007,3.8019,3.812,3.8133,3.8144,3.7988,3.7987,3.7986,0,0,3.6129,3.6249,3.6382,3.6498,3.6674,3.6773,3.6804,3.6994,3.7063,3.7243,3.7313,3.7438,3.7688,3.7804,3.7895,3.8025,3.8071,3.8068,3.8093,3.819,3.8201,3.8211,3.8257,3.8272,3.8081,3.8081,3.8081,0,3.6116,3.6329,3.6444,3.6587,3.6686,3.6775,3.691,3.7017,3.723,3.7296,3.7292,3.7607,3.7726,3.7932,3.7964,3.8035,3.8075,3.8046,3.819,3.8202,3.8213,3.8259,3.8276,3.808,3.808,3.808,3.808,0,3.6304,3.645,3.6536,3.6741,3.6851,3.6988,3.7123,3.722,3.7282,3.738,3.7562,3.7708,3.7883,3.7938,3.7999,3.8154,3.8148,3.8165,3.8155,3.8223,3.8268,3.8286,3.8078,3.8078,3.8078,3.8079,0,0,3.6344,3.6613,3.6642,3.6737,3.6938,3.7053,3.7195,3.7368,3.7449,3.7593,3.7715,3.7924,3.7943,3.8046,3.8122,3.8207,3.83,3.8215,3.822,3.8225,3.8479,3.8464,3.8483,3.8332,3.8336,3.8339,3.8465,0,3.6454,3.6713,3.6821,3.7029,3.7166,3.7253,3.7377,3.7513,3.7609,3.7739,3.7845,3.7991,3.8004,3.8067,3.8155,3.827,3.8353,3.8263,3.8446,3.8452,3.8401,3.8507,3.8491,3.8603,3.8484,3.8487,3.8489,0,3.6617,3.6764,3.6986,3.7171,3.7233,3.7342,3.751,3.7633,3.7789,3.7853,3.797,3.8042,3.8193,3.8174,3.8385,3.8321,3.8403,3.8471,3.8478,3.8499,3.8474,3.8529,3.8642,3.8658,3.8518,3.8516,3.8513,0,3.6624,3.6877,3.7043,3.7121,3.7342,3.7417,3.7512,3.7666,3.7764,3.791,3.7975,3.8136,3.8225,3.8348,3.8461,3.8437,3.8662,3.8652,3.8719,3.8716,3.8761,3.8757,3.8887,3.8814,3.8814,3.8814,3.8813,0,3.6735,3.6867,3.7049,3.7151,3.7302,3.7425,3.757,3.7672,3.7808,3.7931,3.8016,3.8129,3.8273,3.8404,3.8494,3.8655,3.8694,3.8749,3.8772,3.8742,3.8735,3.8796,3.8791,3.8818,3.8817,3.8816,3.8816,0,3.6768,3.6895,3.7082,3.7276,3.7328,3.743,3.7597,3.7699,3.7799,3.7953,3.7997,3.8154,3.8313,3.8439,3.8646,3.8706,3.8876,3.8901,3.8823,3.8835,3.8894,3.8887,3.9069,3.9099,3.9005,3.9006,3.9006,0,3.683,3.6934,3.714,3.7229,3.7324,3.7466,3.7566,3.7691,3.7792,3.7979,3.8058,3.8224,3.8363,3.8613,3.8745,3.8905,3.8934,3.8987,3.8958,3.8925,3.8934,3.8926,3.8938,3.8989,3.8989,3.899,3.899,0,3.6926,3.6985,3.7127,3.7292,3.7409,3.7545,3.7682,3.7749,3.7899,3.8008,3.8173,3.8281,3.8493,3.8656,3.8829,3.8927,3.8984,3.8998,3.9022,3.8992,3.8943,3.8971,3.8832,3.8993,3.8993,3.8993,3.8993,3.8992,3.6976,3.7073,3.7234,3.7389,3.7506,3.7632,3.7738,3.7852,3.7992,3.8176,3.8241,3.841,3.8565,3.8803,3.8902,3.9036,3.904,3.9074,3.9083,3.9089,3.9086,3.8922,3.9068,3.9068,3.9068,3.9068,3.9068,0,3.7077,3.7185,3.7327,3.7517,3.7639,3.7684,3.7838,3.7937,3.8085,3.8225,3.8361,3.855,3.8709,3.8855,3.9021,3.91,3.913,3.9139,3.9134,3.9156,3.9073,3.9036,3.9112,3.9112,3.9112,3.9112,3.9112,3.9112,3.7144,3.731,3.7388,3.7613,3.772,3.7887,3.7972,3.8089,3.8202,3.8409,3.8542,3.8637,3.878,3.8957,3.9104,3.9143,3.92,3.9202,3.9247,3.9167,3.9161,3.9156,3.9121,3.9214,3.9214,3.9319,3.932,3.9321]}]]